Theta_e
308 309 309 309 309 310 308 309 307 309 312 322 323 325 336 340 342 342 343 343 343 343 343 344 342 345 345 342 342 339 337 335 335 336 334 333 332 331 329 328 328 329 324 321
305 308 308 306 309 310 310 310 310 310 310 318 331 340 340 341 341 341 341 342 343 346 343 342 341 343 342 340 339 339 337 334 334 334 333 331 330 328 329 327 328 329 326 321
302 308 307 303 307 309 310 312 311 307 313 318 327 337 339 342 343 342 341 342 343 341 342 340 340 342 339 338 336 336 334 333 332 332 330 328 328 328 327 326 327 327 326 326
304 307 298 308 314 313 310 311 313 313 315 318 320 336 340 346 344 344 343 344 344 343 341 341 341 338 339 335 336 334 332 331 331 330 327 327 327 327 328 327 327 328 325 326
306 304 307 309 313 312 310 310 314 313 315 318 320 337 322 339 344 346 345 347 345 345 343 343 339 338 337 333 332 331 330 329 329 329 327 327 326 327 329 330 330 329 328 327
308 304 301 312 315 319 317 307 317 317 316 317 324 324 336 345 344 346 345 347 345 345 344 340 337 336 334 331 330 329 328 328 330 330 328 326 328 329 331 331 331 326 329 330
307 305 309 318 319 322 309 311 320 320 320 321 326 329 341 345 344 346 347 346 347 344 338 337 336 334 332 331 329 329 328 328 330 330 328 329 330 332 331 332 331 329 328 330
311 307 303 322 320 315 325 329 329 329 325 330 333 335 342 340 342 346 346 344 342 339 336 336 336 335 330 329 330 330 329 328 328 329 324 324 329 330 331 331 328 328 327 326
310 309 321 324 322 329 327 327 330 330 331 327 331 336 339 341 345 346 345 342 340 338 337 336 336 335 329 330 330 329 328 326 327 329 330 329 329 329 326 329 325 326 325 325
313 317 320 323 324 332 329 328 328 331 333 328 328 336 339 342 344 344 342 340 339 336 334 334 336 334 332 330 331 328 327 327 328 327 328 328 325 324 324 327 321 317 318 320
315 317 319 323 325 328 328 331 333 332 333 331 330 341 344 344 345 343 341 340 337 333 333 332 332 329 329 329 329 326 326 325 324 324 323 325 325 328 326 328 320 320 321 323
312 321 318 316 320 331 333 333 333 334 334 336 343 343 345 344 345 342 341 338 336 335 330 329 330 329 328 329 329 327 325 324 322 320 320 321 321 323 311 312 310 306 305 312
322 323 322 320 323 332 333 333 335 337 336 341 344 346 346 343 344 335 339 337 335 333 332 330 330 327 329 330 330 329 326 323 322 320 322 324 326 326 319 313 305 303 302 301
328 327 320 324 326 332 334 334 336 340 341 343 346 347 346 342 339 336 334 334 334 333 331 330 328 327 329 329 331 329 327 314 323 321 326 323 327 328 323 323 313 314 307 304
324 327 324 326 330 332 334 335 335 337 341 342 345 345 344 340 339 336 335 333 331 328 328 327 327 327 329 328 327 325 325 321 323 325 327 323 326 323 320 321 320 325 324 311
324 325 325 325 326 330 333 334 335 337 339 341 340 341 341 338 338 338 336 332 327 325 326 326 325 324 327 327 324 322 323 323 320 322 323 323 321 320 321 326 325 319 322 319
320 321 323 325 326 329 332 334 337 339 339 340 337 338 338 336 336 334 332 329 332 329 327 326 322 325 326 324 323 320 319 321 320 319 319 320 323 321 322 321 319 320 318 312
324 327 327 330 331 332 333 335 339 339 339 339 336 335 335 334 330 328 327 325 322 323 325 328 327 327 327 324 324 322 321 321 320 320 321 324 322 324 318 321 320 318 317 315
325 326 327 331 333 334 335 337 337 338 336 336 335 334 333 330 325 324 321 321 322 321 323 327 325 324 325 328 326 324 320 320 321 321 322 322 323 320 318 318 318 318 315 314
324 327 328 334 336 338 336 337 336 337 336 333 330 328 325 325 325 321 320 320 321 322 327 324 324 325 326 327 324 321 323 321 319 321 323 319 321 321 321 313 314 315 315 313
325 329 331 335 335 336 337 338 336 334 333 332 329 324 323 324 324 326 323 317 326 324 324 319 320 323 324 325 319 319 321 321 321 319 320 321 317 319 318 317 315 314 313 313
329 330 335 335 334 334 336 333 333 331 330 331 331 329 326 323 324 323 325 321 322 317 319 320 323 325 325 325 319 319 319 321 321 321 321 321 320 319 316 315 313 313 313 313
331 334 334 332 331 331 332 333 333 333 332 332 328 326 323 321 319 317 317 324 322 319 322 321 321 319 321 324 324 323 323 323 319 322 317 322 319 317 315 313 313 313 313 312
339 334 331 331 331 332 329 329 329 331 329 326 323 322 321 318 319 321 323 318 314 317 321 321 320 318 319 323 323 325 322 324 324 321 318 308 322 319 316 314 314 313 312 309
334 329 328 328 326 326 327 326 325 324 324 323 324 325 323 322 321 324 323 322 312 316 320 316 317 317 320 322 324 324 323 325 321 320 318 317 316 317 315 314 314 312 311 309
329 326 327 329 328 327 326 323 322 324 322 321 322 322 321 323 324 325 326 320 320 316 321 322 320 321 323 325 320 320 325 321 321 319 317 316 316 314 314 314 313 312 311 309
327 320 328 327 327 324 323 325 321 319 321 321 320 322 322 323 322 322 318 321 319 318 320 321 319 321 324 327 327 325 324 321 313 318 316 316 315 314 313 312 312 311 310 309
Wind_Speed
17 20 21 19 18 19 19 22 19 18 5 17 19 19 25 20 17 18 18 19 17 17 16 13 14 11 10 11 8 10 8 7 6 7 7 7 7 6 7 7 6 6 8 9
18 19 20 20 17 14 21 20 20 23 21 17 17 22 19 22 22 20 19 18 18 19 17 16 15 12 11 10 10 9 8 8 7 6 7 6 6 6 5 5 6 5 6 8
15 16 19 20 18 16 14 16 16 18 18 15 6 19 22 21 19 20 20 20 19 18 18 16 16 12 12 11 10 9 9 8 7 7 7 6 6 5 5 5 5 5 5 5
12 14 17 15 17 19 20 20 16 18 17 13 15 19 19 22 19 20 18 19 20 17 17 18 17 16 12 12 10 9 9 9 8 8 8 6 6 5 4 4 4 3 4 5
10 12 15 17 19 19 18 16 15 19 17 13 13 29 19 25 18 18 18 17 16 17 18 15 16 14 12 11 10 9 9 9 8 8 8 6 6 4 3 2 3 3 3 4
11 15 16 14 18 12 15 12 9 14 16 16 12 10 18 22 21 21 21 19 18 18 17 17 16 14 11 11 10 9 9 8 7 8 8 6 5 4 2 3 2 4 1 4
14 12 14 16 18 15 15 8 14 15 17 16 13 9 18 24 21 21 18 19 18 18 16 17 15 14 12 11 10 10 9 8 7 7 7 6 4 3 4 2 1 4 5 4
14 14 13 12 13 11 9 17 16 14 6 11 15 12 26 22 14 19 21 19 19 16 15 15 14 12 12 11 11 11 10 9 8 7 7 7 6 4 5 4 6 7 7 7
1 6 19 16 13 22 12 8 18 14 14 16 24 38 25 18 22 20 19 18 17 16 15 13 13 11 11 11 11 11 10 9 8 7 6 7 5 6 5 7 7 6 4 2
4 12 13 18 10 14 16 10 16 24 3 14 20 30 27 18 20 18 18 17 16 17 16 13 11 10 11 11 10 10 10 9 7 5 4 5 6 6 8 2 5 5 5 4
12 13 9 18 27 7 6 19 14 17 12 12 19 19 22 19 17 17 17 15 14 12 15 13 11 11 11 10 10 9 9 8 8 7 7 7 7 3 3 3 2 2 3 2
8 0 4 6 27 16 5 8 12 15 11 5 17 19 21 17 15 15 15 15 16 14 15 13 11 12 11 11 10 9 8 7 8 8 8 8 7 4 4 6 11 10 7 4
4 6 6 8 34 25 8 11 14 16 7 14 19 20 21 19 18 14 15 15 15 13 14 13 11 11 11 10 9 8 7 7 5 4 5 4 3 3 7 7 8 6 10 12
9 9 9 19 14 12 11 11 15 9 9 13 17 17 17 17 18 21 20 15 14 16 13 12 12 11 10 10 8 6 6 2 4 5 3 4 3 2 2 4 8 8 15 14
19 2 15 18 10 10 13 11 9 4 14 16 14 15 14 17 13 11 9 12 16 17 15 12 10 11 10 9 8 8 5 5 4 4 2 3 1 4 6 5 2 3 4 5
17 17 13 15 8 5 9 10 9 6 13 16 16 14 16 15 14 12 12 12 13 11 13 12 12 11 10 9 10 9 6 2 1 4 2 5 7 8 5 2 3 4 2 3
17 14 13 13 11 3 5 9 7 10 16 17 19 16 16 15 14 13 11 10 9 9 10 10 9 10 9 10 11 8 7 6 7 5 6 6 3 3 4 4 5 5 4 4
20 17 12 6 10 6 3 9 9 15 16 17 17 16 16 15 13 13 11 11 10 10 9 8 8 9 9 10 10 7 6 9 8 8 7 5 5 2 3 6 5 3 3 4
15 14 14 2 4 6 9 9 16 17 18 19 18 16 14 9 9 9 9 10 10 10 9 9 11 10 8 7 5 4 6 7 9 6 5 4 4 2 3 6 7 6 6 5
18 15 16 6 5 9 12 14 18 16 15 17 17 15 14 10 7 8 12 12 10 7 10 10 9 8 7 6 4 5 9 8 6 3 3 2 5 3 4 4 3 6 6 5
21 20 12 12 9 10 13 12 13 15 16 16 15 13 11 15 14 10 10 9 9 13 10 13 8 7 7 7 7 8 10 3 6 4 3 0 1 5 7 5 5 5 5 5
13 10 13 12 11 12 14 14 13 14 14 14 15 13 12 12 12 11 8 9 9 12 9 8 7 6 7 12 9 10 3 2 1 4 3 1 3 3 6 6 6 5 6 5
13 19 17 14 14 12 12 12 11 13 13 12 14 14 12 10 9 9 8 11 9 10 9 8 8 10 7 3 5 5 4 6 2 1 1 5 3 4 4 4 4 4 4 4
12 19 16 13 13 13 13 13 13 11 12 12 11 11 11 9 8 7 9 10 15 10 3 5 11 11 7 4 5 6 4 6 4 5 6 4 2 4 3 3 4 4 3 5
20 15 18 14 12 9 12 13 14 12 11 10 10 10 12 8 7 8 9 9 12 9 7 7 9 9 5 6 6 4 7 1 5 4 5 5 5 4 5 4 4 4 4 4
19 14 14 17 12 10 10 9 9 9 11 10 9 8 7 6 7 8 9 10 9 10 7 8 8 7 6 6 3 7 10 7 3 2 2 4 2 2 3 4 5 4 4 4
15 14 14 11 6 10 9 10 8 7 9 8 8 6 7 7 6 7 9 8 8 8 9 6 6 9 7 8 9 9 4 4 4 4 4 1 1 2 3 3 4 3 3 2
Wind_Direction
265 259 270 273 230 211 239 268 278 285 271 199 183 184 165 151 159 163 156 149 149 150 140 152 140 153 150 143 130 105 111 119 97 89 86 84 86 78 65 61 65 67 65 39
274 267 267 272 271 262 220 224 255 272 277 298 115 136 155 158 166 169 155 155 160 142 148 155 156 155 141 130 123 137 130 113 112 114 113 105 95 88 94 86 72 60 80 74
252 255 252 261 258 262 261 270 236 239 258 270 174 159 159 158 164 169 162 158 152 159 152 157 159 147 141 134 133 134 124 124 129 131 116 114 116 115 102 91 79 64 49 78
244 253 254 263 262 249 246 253 255 266 263 245 256 176 150 153 165 164 166 156 148 154 157 160 155 150 139 139 137 131 133 132 139 135 127 136 129 129 127 110 95 85 71 22
257 255 253 261 252 253 247 241 239 259 264 253 246 98 106 249 176 160 154 146 148 156 157 155 145 136 138 139 139 142 139 141 150 143 140 149 149 134 115 161 184 178 149 140
240 271 260 257 244 258 262 258 277 236 247 246 201 172 152 161 168 156 157 146 162 156 143 134 133 136 145 143 145 146 142 145 153 147 147 154 136 158 182 252 249 303 89 204
230 248 267 285 297 337 253 244 236 253 247 239 185 196 161 148 156 146 147 154 156 144 139 135 138 147 148 148 152 141 138 141 149 148 152 138 171 188 205 239 270 252 242 233
227 232 230 4 324 360 359 360 19 6 61 13 54 336 137 126 131 147 148 143 133 132 132 138 142 146 149 157 138 135 140 144 150 156 183 163 186 191 241 230 235 241 249 245
266 309 307 306 31 16 34 10 336 336 74 89 79 64 330 141 141 144 144 140 139 134 139 143 144 152 156 136 142 146 148 151 162 180 214 153 193 206 229 239 252 220 208 299
249 256 293 330 1 39 348 339 324 315 141 149 132 149 173 147 142 145 140 139 137 144 147 142 140 143 128 140 148 153 152 162 167 177 179 181 219 224 234 194 35 15 344 343
267 265 349 319 297 67 355 314 307 304 298 164 174 154 131 138 142 137 136 142 137 154 137 141 139 132 140 147 159 158 158 173 173 194 196 200 238 199 96 94 168 238 257 287
299 9 127 347 310 304 264 283 285 287 285 155 128 126 125 130 127 132 143 138 144 136 130 139 144 138 149 158 172 166 174 191 196 172 190 206 200 175 226 185 195 212 239 242
195 121 6 235 239 246 22 325 302 303 252 128 132 134 133 137 132 132 126 134 137 134 137 140 144 150 156 162 182 181 198 198 196 233 196 178 198 227 192 226 228 235 246 245
63 103 131 257 290 332 337 320 309 316 121 131 123 126 130 133 141 145 152 149 135 130 138 147 152 155 160 165 179 195 230 114 173 226 175 224 232 242 219 246 193 224 235 235
303 264 195 240 303 338 319 315 302 264 127 118 119 120 133 135 141 122 146 144 128 136 147 146 158 153 164 172 171 199 212 191 242 244 216 98 276 252 253 248 240 294 232 177
273 285 293 290 298 322 307 306 293 211 124 129 132 137 133 120 126 130 125 122 132 143 142 153 160 158 164 169 190 192 178 117 180 345 316 221 230 220 254 306 273 256 312 270
280 287 284 288 297 240 296 290 271 106 106 106 106 118 126 129 132 124 114 123 132 145 146 151 152 158 171 171 206 191 195 175 222 216 247 255 277 308 288 297 312 320 356 92
247 253 280 303 318 329 261 251 129 123 120 120 125 121 124 132 137 137 135 121 120 134 145 152 157 160 183 188 216 231 224 171 192 220 226 219 235 317 349 298 287 280 16 152
255 269 275 259 308 265 223 129 98 109 112 118 119 123 121 126 123 117 121 133 140 144 163 160 152 169 191 206 232 275 251 245 202 222 227 217 202 253 319 339 337 1 347 348
238 243 254 146 215 127 117 126 128 125 123 121 119 122 127 144 144 148 157 152 157 164 154 146 167 191 170 157 230 266 274 257 243 284 122 330 355 12 318 240 20 1 7 355
226 226 191 149 157 149 160 140 142 133 133 134 134 145 151 148 147 160 170 158 159 146 154 149 182 189 178 173 202 244 260 312 11 308 37 254 56 320 263 16 8 359 360 337
226 178 134 146 150 159 133 138 136 127 133 138 148 147 148 126 140 180 179 133 147 134 148 172 205 165 191 170 210 231 237 215 263 312 2 183 248 302 35 16 3 6 348 4
226 132 130 141 139 138 135 131 129 133 141 136 137 145 146 153 161 172 173 156 153 180 169 180 164 142 120 226 273 297 340 303 300 289 269 278 35 31 28 356 4 324 337 324
141 127 127 133 131 132 124 122 123 113 112 123 139 155 151 155 179 200 137 132 148 185 229 161 149 151 168 228 244 266 354 295 276 325 25 334 88 76 26 354 352 326 327 352
128 121 121 118 118 131 131 125 121 128 143 148 163 171 178 179 167 134 142 146 154 178 173 146 154 160 195 231 259 295 245 76 66 38 1 351 357 27 25 4 335 351 357 303
125 125 130 131 137 138 130 126 135 160 147 157 168 171 161 149 126 119 125 138 163 210 208 167 184 198 228 235 187 267 272 139 160 99 109 315 13 3 326 1 344 340 341 345
105 122 125 120 137 123 140 154 156 144 152 161 151 145 125 126 129 141 143 162 172 201 230 192 187 196 218 240 208 228 242 122 84 84 359 314 21 332 12 5 340 346 336 5